Regional Weather Roundup
Issued by NWS

Home | Current Version | Previous Version | Text Only | Print | Product List | Glossary On
Versions: 1 2 3 4 5 6 7 8 9 10 11 12 13 14 15 16 17 18 19 20 21 22 23 24 25 26 27 28 29 30 31 32 33 34 35 36 37 38 39 40 41 42 43 44 45 46 47 48 49 50
000
ASUS44 KLUB 182210
RWRLUB
WEST TEXAS WEATHER ROUNDUP
NATIONAL WEATHER SERVICE LUBBOCK TX
400 PM CST MON NOV 18 2019

NOTE: "FAIR" INDICATES FEW OR NO CLOUDS BELOW 12,000 FEET WITH NO
SIGNIFICANT WEATHER AND/OR OBSTRUCTIONS TO VISIBILITY.

TXZ004-006>008-010-012-014-016-OKZ002-182300-
TEXAS PANHANDLE/OKLAHOMA PANHANDLE

CITY           SKY/WX    TMP DP  RH WIND       PRES   REMARKS
AMARILLO       MOSUNNY   73  29  19 NE10      29.91
BORGER         SUNNY     76  31  19 NE10      29.90
CANADIAN       SUNNY     75  35  22 N14       29.86S
DALHART        SUNNY     73  28  18 NE5       29.93
DUMAS          SUNNY     71  30  22 N5        29.93S
GUYMON         SUNNY     73  32  22 N12       29.89
HEREFORD       SUNNY     74  30  19 NE8       29.94R
PAMPA          SUNNY     73  31  21 NE9       29.92S
PERRYTON       SUNNY     72  32  23 N13       29.88S
$$

TXZ026-029-035-045-048-182300-
SOUTHERN PANHANDLE/SOUTH PLAINS/ROLLING PLAINS

CITY           SKY/WX    TMP DP  RH WIND       PRES   REMARKS
CHILDRESS      SUNNY     76  32  20 CALM      29.86
SEMINOLE       SUNNY     75  25  15 NW5       29.94S
LUBBOCK        MOSUNNY   74  31  20 NE12      29.90
PLAINVIEW      SUNNY     72  27  18 NE6       29.90S
SNYDER         SUNNY     72  33  24 W3        29.89R
$$

TXZ052-054-060>062-072-078-127-140-154-169-182300-
PERMIAN BASIN/CONCHO VALLEY/BIG COUNTRY/EDWARDS PLATEAU

CITY           SKY/WX    TMP DP  RH WIND       PRES   REMARKS
ABILENE        SUNNY     72  34  24 SW10      29.88
BIG SPRING     SUNNY     74  31  20 SW7       29.89
BRADY          SUNNY     73  36  25 S8        29.88F
BROWNWOOD      SUNNY     73  36  25 S3        29.88F
JUNCTION       SUNNY     75  38  26 MISG      29.90
MIDLAND        SUNNY     78  30  17 VRB3      29.88
ODESSA         SUNNY     77  28  16 NW8       29.90
SAN ANGELO     SUNNY     78  35  21 SW8       29.86F
SONORA         SUNNY     75  34  22 CALM      29.94S
SWEETWATER     SUNNY     74  32  21 CALM      29.90S
WINK           SUNNY     78  29  16 W9        29.88
$$

TXZ055-058-074-075-080-082-182300-
FAR WEST/SOUTHWEST MOUNTAINS/TRANS PECOS

CITY           SKY/WX    TMP DP  RH WIND       PRES   REMARKS
ALPINE         SUNNY     76  22  13 W14G21    30.03F
DRYDEN           N/A     81  39  22 SE12      29.84
EL PASO        MOSUNNY   72  24  16 CALM      30.00
FORT STOCKTON  SUNNY     78  26  14 NW15      29.91
GUADALUPE PASS SUNNY     67  24  19 W24       30.05S
MARFA          SUNNY     71  24  17 W17       30.03F
PECOS          SUNNY     80  27  14 NW7G16    29.89F
PRESIDIO       FAIR      77  42  29 SW5       29.96F
$$

TXZ014-016-019-021>030-083-182300
TEXAS TECH WEST TEXAS MESONET/TEXAS PANHANDLE/NORTHERN SOUTH PLAINS

CITY           SKY/WX    TMP DP  RH WIND       PRES   REMARKS
ABERNATHY 5ENE   N/A     73  30  20 NE7       29.90F
AMARILLO 9NNE    N/A     73  32  22 NE5       29.91S
AMARILLO 7SSE    N/A     72  30  21 NE7       29.93S
AMHERST 1NE      N/A     73  29  19 N9        29.92S
BOOTLEG 11WNW    N/A     71  29  20 NE5       29.99R
CANADIAN 6E      N/A     74  37  26 N14       29.84S
CAPROCK CYN SP   N/A     75  26  16 CALM      29.89S
CHILDRESS 2NNE   N/A     76  33  20 SW3       29.86R
CLARENDON 2WSW   N/A     76  26  15 NE1       29.88S
CLAUDE 12SW      N/A     73  29  20 NE10      29.91S
DIMMITT 2NE      N/A     71  31  23 NE10      29.93S
FLOYDADA 2NNE    N/A     72  24  16 N3        29.89S
FRIONA 2NE       N/A     72  29  20 NE6       29.95R
GOODLETT 3W      N/A     76  35  22 SW3       29.84R
HART 3N          N/A     71  33  24 NE10      29.92S
HEREFORD 2NW     N/A     71  31  22 N9        29.93S
MCLEAN 1E        N/A     74  33  22 N9        29.87F
MEMPHIS 1NE      N/A     76  28  17 S7        29.85S
MULESHOE 2SSW    N/A     73  29  19 NE7       29.93F
OLTON 6S         N/A     73  28  19 NE9       29.92F
PALO DURO SP     N/A     73  30  20 NE9       29.93R
PAMPA 2E         N/A     71  33  24 N10       29.90F
PLAINVIEW 1S     N/A     74  29  19 N7        29.89S
SILVERTON 7ESE   N/A     73  28  18 NE5       29.90S
TULIA 2ENE       N/A     73  30  20 NE8       29.91S
TURKEY 2WSW      N/A     76  27  16 N1        29.87S
UMBARGER 3NNE    N/A     71  32  23 NE12      29.94S
$$

TXZ033>036-039>041-045>048-182300
TEXAS TECH WEST TEXAS MESONET/SOUTH PLAINS

CITY           SKY/WX    TMP DP  RH WIND       PRES   REMARKS
AIKEN 3WSW       N/A     72  30  21 NE6       29.91S
ANDREWS 2NE      N/A     78  23  12 NW6       29.90R
ANTON 6SSW       N/A     73  32  22 N7        29.91S
BROWNFIELD 2S    N/A     75  30  19 N5        29.90S
DENVR CTY 7WNW   N/A     76  22  13 N8        29.91S
GAIL 2ESE        N/A     75  31  19 W5        29.87R
LAMESA 2SE       N/A     75  28  18 W7        29.89S
LUBBOCK 3WNW     N/A     73  29  20 N5        29.91R
MORTON 1ENE      N/A     75  24  14 N10       29.92S
ODONNELL 1N      N/A     75  30  19 NW5       29.89S
PLAINS 3N        N/A     76  29  18 N9        29.92R
RALLS 1SE        N/A     71  28  20 CALM      29.91S
REESE CENTER     N/A     73  31  21 N8        29.91R
SEAGRAVES 1SW    N/A     77  28  16 NW5       29.90S
SEMINOLE 2NNE    N/A     76  23  13 NW6       29.90S
SLATON 2NE       N/A     71  32  23 N7        29.90S
SNYDER 3E        N/A     74  33  22 W3        29.88R
SUNDOWN 8SW      N/A     76  26  15 N10       29.91S
TAHOKA 3NNE      N/A     73  30  20 N9        29.90S
WOLFFORTH 6SSW   N/A     72  31  22 N3        29.91S
$$

TXZ031-032-036>038-042>044-182300-
TEXAS TECH WEST TEXAS MESONET/ROLLING PLAINS

CITY           SKY/WX    TMP DP  RH WIND       PRES   REMARKS
ASPERMONT 3NE    N/A     75  37  25 SW3       29.87R
FLUVANNA 3WNW    N/A     72  34  24 SW5       29.89R
GRAHAM 5SSW      N/A     74  28  18 NW6       29.89R
GUTHRIE 10WSW    N/A     75  30  19 S5        29.86F
HASKELL 1NW      N/A     74  37  26 SW7       29.86R
JAYTON 1SSE      N/A     74  35  24 W2        29.87R
KNOX CITY 3NW    N/A     75  38  26 SW6       29.86S
LK A HENRY 1NW   N/A     75  33  21 NW5       29.87R
NORTHFIELD 1S    N/A     79  24  13 SE2       29.86R
ODELL 4ENE       N/A     75  38  26 S7        29.85R
PADUCAH 10SW     N/A     75  32  20 S7        29.86R
POST 1NE         N/A     75  24  15 W2        29.88S
RRING SPRGS 3N   N/A     74  31  20 CALM      29.88R
SEYMOUR 3NW      N/A     73  39  28 W8        29.84S
SPUR 1W          N/A     74  35  24 S1        29.87S
WEINERT 2NNE     N/A     74  38  27 SW7       29.86S
WHITE RVR 6NE    N/A     73  30  20 W5        29.89R
$$

TXZ052-054-060>062-072-078-127-140-154-169-182300-
TEXAS TECH WEST TEXAS MESONET/PERMIAN BASIN/
CONCHO VALLEY/BIG COUNTRY/EDWARDS PLATEAU

CITY           SKY/WX    TMP DP  RH WIND       PRES   REMARKS
COYANOSA 2N      N/A     81  28  14 W8        29.89F
JUNCTION 1SSW    N/A     75  39  27 S2        29.90S
MERTZON 3NNE     N/A     78  36  22 SW7       29.88F
SAN ANGELO 7NW   N/A     77  31  18 SE5       29.86F
STRLNG CT 4WSW   N/A     77  31  18 S7        29.88S
ST LAWRNCE 5SW   N/A     75  28  17 W5        29.89S
SWEETWATR 11SW   N/A     73  33  23 S6        29.89S
WALL 1E          N/A     76  36  23 SW6       29.88S
$$

TXZ055-058-074-075-080-082-182300-
TEXAS TECH WEST TEXAS MESONET/FAR WEST/SOUTHWEST MOUNTAINS/TRANS PECOS

CITY           SKY/WX    TMP DP  RH WIND       PRES   REMARKS
PRSMN GAP BBNP   N/A     83  35  17 SW10      29.90F
GUADLPE MTN NP   N/A     67  25  20 W13       30.05S
$$



USA.gov is the U.S. government's official web portal to all federal, state and local government web resources and services.